Weather History for Du Bois, PA

Change the Weather History Date:

Thursday, October 11, 2012

  Actual Average Record
Temperature  
Mean Temperature 42 °F 50 °F  
Max Temperature 52 °F 60 °F 78 °F (1969)
Min Temperature 31 °F 41 °F 23 °F (1964)
Degree Days  
Heating Degree Days 23 15  
Month to date heating degree days 140 143  
Since 1 July heating degree days 363 389  
Cooling Degree Days 0 0  
Month to date cooling degree days 2 0  
Year to date cooling degree days 547 360  
Moisture  
Dew Point 29 °F    
Average Humidity 62    
Maximum Humidity 85    
Minimum Humidity 38    
Precipitation  
Precipitation 0.00 in 0.10 in 1.52 in (1990)
Month to date precipitation 0.32 1.15  
Sea Level Pressure  
Sea Level Pressure 30.18 in    
Wind  
Wind Speed 9 mph (WSW)    
Max Wind Speed 18 mph    
Max Gust Speed 24 mph    
Visibility 10 miles    
Events      
T = Trace of Precipitation, MM = Missing Value Source: NWS Daily Summary

Daily Weather History Graph

Daily Weather History Graph

Search for Another Location

Airport:

Trip Planner

Search our weather history database for the weather conditions in past years. The results will help you decide how hot, cold, wet, or windy it might be!

Date:

Astronomy

Oct. 11, 2012 Rise Set
Actual Time 7:23 AM EDT 6:40 PM EDT
Civil Twilight 6:55 AM EDT 7:07 PM EDT
Nautical Twilight 6:23 AM EDT 7:39 PM EDT
Astronomical Twilight 5:51 AM EDT 8:11 PM EDT
Moon 2:57 AM EDT (10/11) 4:17 PM EDT (10/11)
Length of Visible Light 12h 12m
Length of Day
11h 16m
Waning Crescent, 18% of the Moon is Illuminated
Oct 11
Waning Crescent
Oct 15
New
Oct 21
First Quarter
Oct 29
Full
Nov 6
Last Quarter

Hourly Weather History & Observations

Time (EDT) Temp. Windchill Dew Point Humidity Pressure Visibility Wind Dir Wind Speed Gust Speed Precip Events Conditions
12:56 AM 41.0 °F 34.3 °F 32.0 °F 70% 30.11 in 10.0 mi West 11.5 mph 18.4 mph N/A   Overcast
1:56 AM 39.9 °F 31.8 °F 30.0 °F 68% 30.13 in 10.0 mi West 15.0 mph - N/A   Overcast
2:56 AM 39.0 °F 31.4 °F 28.0 °F 65% 30.14 in 10.0 mi West 12.7 mph 18.4 mph N/A   Partly Cloudy
3:56 AM 39.0 °F 32.8 °F 28.0 °F 65% 30.12 in 10.0 mi WNW 9.2 mph - N/A   Overcast
4:56 AM 37.0 °F 30.4 °F 27.0 °F 67% 30.17 in 10.0 mi West 9.2 mph - N/A   Partly Cloudy
5:56 AM 34.0 °F 28.0 °F 27.0 °F 75% 30.19 in 10.0 mi West 6.9 mph - N/A   Clear
6:56 AM 32.0 °F 25.6 °F 26.1 °F 79% 30.23 in 10.0 mi WSW 6.9 mph - N/A   Clear
8:56 AM 36.0 °F 29.0 °F 28.9 °F 76% 30.27 in 10.0 mi WSW 9.2 mph - N/A   Clear
9:56 AM 41.0 °F 34.7 °F 28.9 °F 62% 30.27 in 10.0 mi West 10.4 mph - N/A   Clear
10:56 AM 44.1 °F 37.7 °F 28.9 °F 55% 30.26 in 10.0 mi WSW 12.7 mph 19.6 mph N/A   Clear
11:56 AM 46.0 °F 40.6 °F 28.9 °F 51% 30.25 in 10.0 mi West 11.5 mph 21.9 mph N/A   Partly Cloudy
12:56 PM 46.9 °F - 28.9 °F 50% 30.23 in 10.0 mi WSW 12.7 mph 17.3 mph N/A   Partly Cloudy
1:56 PM 48.9 °F - 28.9 °F 46% 30.20 in 10.0 mi WSW 11.5 mph - N/A   Clear
2:56 PM 51.1 °F - 28.9 °F 43% 30.17 in 10.0 mi WSW 13.8 mph 18.4 mph N/A   Clear
3:56 PM 51.1 °F - 28.0 °F 41% 30.14 in 10.0 mi SW 11.5 mph 17.3 mph N/A   Clear
5:56 PM 50.0 °F - 27.0 °F 41% 30.16 in 10.0 mi SW 12.7 mph - N/A   Clear
7:56 PM 44.1 °F 42.5 °F 28.9 °F 55% 30.16 in 10.0 mi SSW 3.5 mph - N/A   Clear
9:56 PM 41.0 °F 38.0 °F 28.9 °F 62% 30.15 in 10.0 mi SW 4.6 mph - N/A   Clear
10:56 PM 41.0 °F 35.8 °F 28.9 °F 62% 30.15 in 10.0 mi SW 8.1 mph - N/A   Clear
11:56 PM 41.0 °F 35.8 °F 28.9 °F 62% 30.14 in 10.0 mi WSW 8.1 mph - N/A   Clear